Regional Weather Roundup
Issued by NWS Albany, NY

Home | Current Version | Previous Version | Text Only | Print | Product List | Glossary On
Versions: 1 2 3 4 5 6 7 8 9 10 11 12 13 14 15 16 17 18 19 20 21 22 23 24 25 26 27 28 29 30 31 32 33 34 35 36 37 38 39 40 41 42 43 44 45 46 47 48 49 50
000
ASUS41 KALY 280310
RWRALY

NEW YORK STATE HOURLY WEATHER ROUNDUP
NATIONAL WEATHER SERVICE ALBANY NY
1100 PM EDT THU AUG 27 2015

NOTE: "FAIR" INDICATES FEW OR NO CLOUDS BELOW 12,000 FEET WITH NO
SIGNIFICANT WEATHER AND/OR NO OBSTRUCTIONS TO VISIBILITY.

NYZ032-033-038>043-046>054-057>066-NYZ062>081-280400-
EAST


CITY           SKY/WX    TMP DP  RH WIND       PRES   REMARKS
ALBANY         PTCLDY    64  54  69 W13       30.12R
GLENS FALLS    CLEAR     60  52  74 CALM      30.11R
POUGHKEEPSIE   CLEAR     62  57  83 CALM      30.11S
MONTGOMERY     CLEAR     57  55  93 CALM      30.13R
WHITE PLAINS   CLEAR     63  55  75 NW7       30.11S
ISLIP          PTCLDY    66  55  67 NW5       30.09R
NEW YORK CITY  PTCLDY    72  54  53 N8        30.10S
CENTRAL PARK   CLEAR     71  52  50 NW7       30.14R
$$

NYZ005>009-017-018-044>046-055-056-280400-
CENTRAL


CITY           SKY/WX    TMP DP  RH WIND       PRES   REMARKS
FULTON         CLOUDY    57  55  93 CALM      30.16S
SYRACUSE       PTCLDY    58  55  90 CALM      30.15S
ROME           CLEAR     56  54  93 CALM      30.17R
ELMIRA         PTCLDY    54  54 100 CALM      30.18R
BINGHAMTON     CLEAR     57  53  86 NW3       30.19R
MONTICELLO     MOCLDY    59  54  82 NW7       30.18R
$$

NYZ026>034-041>043-280400-
NORTH


CITY           SKY/WX    TMP DP  RH WIND       PRES   REMARKS
WATERTOWN      CLEAR     54  52  93 SE3       30.14R
FORT DRUM      NOT AVBL
MASSENA        CLEAR     59  55  87 CALM      30.12S
SARANAC LAKE   CLEAR     54  52  93 CALM      30.13S
PLATTSBURGH    CLEAR     62  55  77 VRB3      30.09S
$$

NYZ001>004-010>016-019>021-280400-
WEST


CITY           SKY/WX    TMP DP  RH WIND       PRES   REMARKS
NIAGARA FALLS  MOCLDY    61  53  75 CALM      30.16S
BUFFALO        PTCLDY    61  52  72 SE3       30.17S
DUNKIRK        MOCLDY    61  57  87 S5        30.18S
JAMESTOWN      MOCLDY    55  50  82 W3        30.20S
WELLSVILLE     CLEAR     54  50  86 CALM      30.22S
ROCHESTER      PTCLDY    56  53  90 SW3       30.17S
PENN YAN       CLOUDY    58  55  90 CALM      30.18S
$$

             KEY
       WCI = WIND CHILL INDEX
       VSB = VISIBILITY
       HX  = HEAT INDEX
$$



USA.gov is the U.S. government's official web portal to all federal, state and local government web resources and services.